Overview Statistics Trail Chart Weather Telemetry Raw packets
 

This is the latest recevied weather packets stored in our database for station/object W0WFX-2. If no packets are shown the sender has not sent any weather packets the latest 10 day(s).

<< 12 13 14 15 16 17 18 >>
Time Temp. Humidity Pressure Rain* Wind** Luminosity Snow
1788556282 36.11° C 43% 1012.8 hPa 0 mm - 61 W/m² -
1788555981 36.67° C 41% 1012.7 hPa 0 mm - 62 W/m² -
1788555677 36.67° C 41% 1012.9 hPa 0 mm - 63 W/m² -
1788555373 36.67° C 41% 1012.8 hPa 0 mm - 65 W/m² -
1788555069 36.67° C 41% 1013 hPa 0 mm - 66 W/m² -
1788554764 36.67° C 42% 1012.9 hPa 0 mm - 69 W/m² -
1788554461 36.67° C 42% 1013 hPa 0 mm - 71 W/m² -
1788554156 36.67° C 42% 1013 hPa 0 mm - 82 W/m² -
1788553853 36.67° C 41% 1013.1 hPa 0 mm - 94 W/m² -
1788553548 36.67° C 41% 1013.2 hPa 0 mm - 83 W/m² -
1788553245 36.67° C 41% 1013.2 hPa 0 mm - 72 W/m² -
1788552944 36.67° C 43% 1013.2 hPa 0 mm - 70 W/m² -
1788552640 36.67° C 42% 1013.2 hPa 0 mm - 71 W/m² -
1788552338 36.11° C 43% 1013.2 hPa 0 mm - 73 W/m² -
1788552034 36.11° C 43% 1013.4 hPa 0 mm - 75 W/m² -
1788551732 36.11° C 43% 1013.3 hPa 0 mm - 73 W/m² -
1788551432 36.67° C 42% 1013.3 hPa 0 mm - 74 W/m² -
1788551127 36.67° C 42% 1013.2 hPa 0 mm - 636 W/m² -
1788550516 36.67° C 42% 1013.5 hPa 0 mm - 684 W/m² -
1788550213 36.67° C 42% 1013.4 hPa 0 mm - 688 W/m² -
1788549912 36.67° C 42% 1013.5 hPa 0 mm - 693 W/m² -
1788549608 36.67° C 42% 1013.5 hPa 0 mm - 695 W/m² -
1788549305 36.67° C 42% 1013.5 hPa 0 mm - 703 W/m² -
1788549001 36.11° C 43% 1013.7 hPa 0 mm - 704 W/m² -
1788548696 36.67° C 43% 1013.7 hPa 0 mm - 713 W/m² -

* Rain latest hour (hover to see other rain measurements)
** Current wind speed in m/s (hover to see current wind gust speed)